Change the Weather History Date:

Thursday, January 10, 2013

  Actual Average Record
Temperature  
Mean Temperature 29 °F -  
Max Temperature 39 °F 29 °F 46 °F (2012)
Min Temperature 19 °F 15 °F -4 °F (2004)
Degree Days  
Heating Degree Days 36    
Moisture  
Dew Point 25 °F    
Average Humidity 78    
Maximum Humidity 89    
Minimum Humidity 60    
Precipitation  
Precipitation 0.05 in - - ()
Sea Level Pressure  
Sea Level Pressure 30.45 in    
Wind  
Wind Speed 3 mph (ESE)    
Max Wind Speed 12 mph    
Max Gust Speed -    
Visibility 8 miles    
Events Rain    
Averages and records for this station are not official NWS values.
T = Trace of Precipitation, MM = Missing Value Source: NWS Daily Summary

Daily Weather History Graph

Daily Weather History Graph

Search for Another Location

Airport or City:

Trip Planner

Search our weather history database for the weather conditions in past years. The results will help you decide how hot, cold, wet, or windy it might be!

Date:

Astronomy

Jan. 10, 2013 Rise Set
Actual Time 8:02 AM EST 5:22 PM EST
Civil Twilight 7:31 AM EST 5:53 PM EST
Nautical Twilight 6:56 AM EST 6:28 PM EST
Astronomical Twilight 6:23 AM EST 7:02 PM EST
Moon 6:41 AM EST (1/10) 4:29 PM EST (1/10)
Length of Visible Light 10h 22m
Length of Day
9h 19m
Waning Crescent, 2% of the Moon is Illuminated
Jan 10
Waning Crescent
Jan 11
New
Jan 18
First Quarter
Jan 26
Full
Feb 3
Last Quarter

Hourly Weather History & Observations

Time (EST) Temp. Windchill Dew Point Humidity Pressure Visibility Wind Dir Wind Speed Gust Speed Precip Events Conditions
12:53 AM 25.0 °F - 21.0 °F 85% 30.50 in 10.0 mi Calm Calm - N/A   Clear
1:53 AM 24.1 °F 19.7 °F 21.0 °F 88% 30.53 in 10.0 mi West 3.5 mph - N/A   Clear
2:53 AM 21.9 °F - 19.0 °F 89% 30.55 in 8.0 mi Calm Calm - N/A   Clear
3:53 AM 19.9 °F - 17.1 °F 89% 30.55 in 6.0 mi Calm Calm - N/A   Clear
4:53 AM 19.0 °F - 16.0 °F 88% 30.53 in 9.0 mi Calm Calm - N/A   Clear
5:53 AM 19.0 °F - 16.0 °F 88% 30.54 in 5.0 mi Calm Calm - N/A   Clear
6:53 AM 19.9 °F - 16.0 °F 85% 30.56 in 10.0 mi Calm Calm - N/A   Clear
7:53 AM 19.9 °F - 16.0 °F 85% 30.57 in 10.0 mi Calm Calm - N/A   Clear
8:53 AM 21.9 °F - 19.0 °F 89% 30.58 in 10.0 mi Calm Calm - N/A   Clear
9:53 AM 30.9 °F - 27.0 °F 85% 30.59 in 8.0 mi Calm Calm - N/A   Clear
10:53 AM 37.0 °F 31.6 °F 27.0 °F 67% 30.57 in 10.0 mi East 6.9 mph - N/A   Clear
11:53 AM 37.9 °F 33.5 °F 26.1 °F 62% 30.54 in 10.0 mi SE 5.8 mph - N/A   Clear
12:53 PM 39.0 °F 33.4 °F 26.1 °F 60% 30.51 in 10.0 mi SE 8.1 mph - N/A   Clear
1:53 PM 39.0 °F 32.3 °F 26.1 °F 60% 30.48 in 10.0 mi SE 10.4 mph - N/A   Clear
2:53 PM 37.9 °F 30.5 °F 27.0 °F 65% 30.46 in 10.0 mi ESE 11.5 mph - N/A   Clear
3:53 PM 37.9 °F 33.5 °F 28.0 °F 68% 30.45 in 10.0 mi SE 5.8 mph - N/A   Clear
4:53 PM 37.0 °F 32.4 °F 28.0 °F 70% 30.43 in 10.0 mi ESE 5.8 mph - N/A   Clear
5:53 PM 36.0 °F 29.0 °F 27.0 °F 70% 30.40 in 10.0 mi ESE 9.2 mph - N/A   Clear
6:53 PM 36.0 °F 31.1 °F 28.0 °F 73% 30.39 in 10.0 mi ESE 5.8 mph - N/A   Clear
7:53 PM 36.0 °F 30.3 °F 28.0 °F 73% 30.36 in 10.0 mi ESE 6.9 mph - N/A   Clear
8:53 PM 36.0 °F 29.6 °F 28.9 °F 76% 30.33 in 6.0 mi ESE 8.1 mph - 0.01 in Rain Light Rain
9:53 PM 35.1 °F 29.3 °F 30.9 °F 85% 30.28 in 8.0 mi East 6.9 mph - 0.04 in   Overcast
10:53 PM 36.0 °F 29.6 °F 30.9 °F 82% 30.23 in 8.0 mi ESE 8.1 mph - N/A   Overcast
11:51 PM 35.6 °F 29.9 °F 32.0 °F 87% 30.17 in 2.5 mi ESE 6.9 mph - 0.00 in   Overcast
11:53 PM 35.1 °F 28.6 °F 32.0 °F 89% 30.19 in 2.5 mi ESE 8.1 mph - 0.00 in   Overcast